�������l�o���
Date,Time,MP-1(��Sv/h),MP-2(��Sv/h),MP-3(��Sv/h),MP-4(��Sv/h),MP-5(��Sv/h),MP-6(��Sv/h),MP-7(��Sv/h),MP-8(��Sv/h),����,����(m/s),���J
2020/11/19,00:00,0.680,0.981,0.619,1.211,0.870,0.388,0.680,0.639,��쐼,6.3,��
2020/11/19,00:10,0.681,0.982,0.620,1.214,0.871,0.388,0.680,0.637,��쐼,6.5,��
2020/11/19,00:20,0.679,0.979,0.620,1.215,0.871,0.387,0.681,0.639,��쐼,6.5,��
2020/11/19,00:30,0.682,0.982,0.620,1.214,0.871,0.388,0.681,0.638,��쐼,6.1,��
2020/11/19,00:40,0.681,0.980,0.621,1.215,0.872,0.387,0.680,0.639,��쐼,5.3,��
2020/11/19,00:50,0.681,0.980,0.619,1.215,0.872,0.389,0.681,0.639,��쐼,5.8,��
2020/11/19,01:00,0.681,0.980,0.619,1.215,0.869,0.388,0.683,0.640,��쐼,7.0,��
2020/11/19,01:10,0.679,0.979,0.622,1.213,0.871,0.388,0.683,0.640,��쐼,7.1,��
2020/11/19,01:20,0.682,0.982,0.620,1.214,0.870,0.388,0.680,0.640,��쐼,7.1,��
2020/11/19,01:30,0.681,0.981,0.618,1.217,0.870,0.387,0.681,0.638,��쐼,6.4,��
2020/11/19,01:40,0.681,0.981,0.621,1.213,0.870,0.390,0.682,0.640,��쐼,6.0,��
2020/11/19,01:50,0.680,0.980,0.621,1.214,0.869,0.389,0.681,0.639,��쐼,5.8,��
2020/11/19,02:00,0.683,0.981,0.619,1.213,0.870,0.389,0.681,0.640,��쐼,5.6,��
2020/11/19,02:10,0.683,0.981,0.619,1.216,0.869,0.389,0.680,0.639,��쐼,6.2,��
2020/11/19,02:20,0.682,0.981,0.620,1.217,0.869,0.387,0.680,0.640,��쐼,5.9,��
2020/11/19,02:30,0.682,0.980,0.620,1.214,0.871,0.389,0.681,0.639,��쐼,5.8,��
2020/11/19,02:40,0.682,0.980,0.619,1.215,0.872,0.387,0.682,0.639,��쐼,7.0,��
2020/11/19,02:50,0.681,0.980,0.618,1.215,0.869,0.386,0.682,0.639,�쐼,6.7,��
2020/11/19,03:00,0.680,0.980,0.620,1.215,0.870,0.389,0.681,0.639,�쐼,5.0,��
2020/11/19,03:10,0.681,0.981,0.618,1.213,0.871,0.388,0.682,0.638,��쐼,6.7,��
2020/11/19,03:20,0.681,0.982,0.620,1.214,0.868,0.388,0.681,0.638,��쐼,7.2,��
2020/11/19,03:30,0.681,0.980,0.620,1.214,0.872,0.389,0.681,0.639,��쐼,5.6,��
2020/11/19,03:40,0.680,0.980,0.619,1.214,0.871,0.388,0.681,0.639,��쐼,5.3,��
2020/11/19,03:50,0.681,0.980,0.619,1.212,0.871,0.389,0.681,0.639,�쐼,4.6,��
2020/11/19,04:00,0.679,0.979,0.621,1.213,0.870,0.389,0.681,0.638,��쐼,4.0,��
2020/11/19,04:10,0.680,0.979,0.619,1.215,0.870,0.388,0.681,0.637,��쐼,3.2,��
2020/11/19,04:20,0.680,0.981,0.618,1.212,0.872,0.387,0.681,0.640,��쐼,3.1,��
2020/11/19,04:30,0.678,0.978,0.619,1.213,0.871,0.388,0.682,0.639,��쐼,3.2,��
2020/11/19,04:40,0.680,0.981,0.619,1.215,0.870,0.389,0.681,0.639,�쐼,3.7,��
2020/11/19,04:50,0.681,0.979,0.620,1.212,0.869,0.389,0.682,0.640,��쐼,2.9,��
2020/11/19,05:00,0.681,0.980,0.619,1.215,0.869,0.388,0.682,0.639,��,3.4,��
2020/11/19,05:10,0.681,0.979,0.620,1.215,0.869,0.386,0.681,0.638,��,4.6,��
2020/11/19,05:20,0.681,0.979,0.618,1.215,0.870,0.388,0.682,0.639,��,4.6,��
2020/11/19,05:30,0.682,0.979,0.621,1.213,0.870,0.388,0.682,0.639,��,6.3,��
2020/11/19,05:40,0.681,0.979,0.619,1.215,0.869,0.387,0.680,0.637,��쐼,5.1,��
2020/11/19,05:50,0.681,0.977,0.619,1.213,0.871,0.387,0.681,0.637,��쐼,5.8,��
2020/11/19,06:00,0.680,0.977,0.619,1.213,0.871,0.388,0.682,0.639,��쐼,5.2,��
2020/11/19,06:10,0.680,0.980,0.619,1.215,0.873,0.389,0.681,0.640,��,4.9,��
2020/11/19,06:20,0.680,0.978,0.618,1.215,0.868,0.387,0.682,0.639,��,5.2,��
2020/11/19,06:30,0.682,0.979,0.619,1.212,0.870,0.389,0.682,0.640,��,4.6,��
2020/11/19,06:40,0.681,0.979,0.619,1.214,0.870,0.387,0.680,0.640,��쐼,4.1,��
2020/11/19,06:50,0.681,0.980,0.620,1.216,0.869,0.388,0.681,0.639,��,5.3,��
2020/11/19,07:00,0.682,0.979,0.620,1.215,0.870,0.387,0.682,0.638,��,5.3,��
2020/11/19,07:10,0.681,0.981,0.621,1.214,0.869,0.388,0.681,0.640,��,4.1,��
2020/11/19,07:20,0.680,0.979,0.619,1.214,0.868,0.389,0.681,0.638,��,4.3,��
2020/11/19,07:30,0.681,0.979,0.620,1.216,0.869,0.388,0.681,0.640,��,4.8,��
2020/11/19,07:40,0.682,0.981,0.619,1.215,0.871,0.387,0.681,0.639,��,5.0,��
2020/11/19,07:50,0.681,0.979,0.619,1.214,0.869,0.387,0.682,0.639,��,5.5,��
2020/11/19,08:00,0.681,0.979,0.619,1.214,0.870,0.387,0.680,0.639,��쐼,5.0,��
2020/11/19,08:10,0.682,0.979,0.619,1.216,0.870,0.387,0.682,0.639,��,5.2,��
2020/11/19,08:20,0.681,0.981,0.619,1.215,0.871,0.389,0.682,0.638,��,6.1,��
2020/11/19,08:30,0.681,0.977,0.619,1.213,0.871,0.388,0.680,0.638,��,6.3,��
2020/11/19,08:40,0.682,0.977,0.621,1.214,0.872,0.388,0.681,0.639,��,6.1,��
2020/11/19,08:50,0.682,0.977,0.621,1.216,0.872,0.387,0.680,0.639,��,4.9,��
2020/11/19,09:00,0.682,0.977,0.621,1.214,0.870,0.388,0.680,0.639,��,5.3,��
2020/11/19,09:10,0.680,0.973,0.617,1.214,0.872,0.388,0.679,0.640,��,6.1,��
2020/11/19,09:20,0.682,0.971,0.618,1.216,0.871,0.386,0.681,0.639,��,6.4,��
2020/11/19,09:30,0.681,0.973,0.620,1.214,0.871,0.386,0.681,0.641,��,6.5,��
2020/11/19,09:40,0.680,0.972,0.621,1.213,0.870,0.386,0.681,0.639,��,7.2,��
2020/11/19,09:50,0.680,0.973,0.621,1.214,0.870,0.386,0.680,0.640,��,6.9,��
2020/11/19,10:00,0.682,0.975,0.620,1.216,0.868,0.386,0.680,0.639,��,6.8,��
2020/11/19,10:10,0.682,0.976,0.620,1.215,0.870,0.387,0.681,0.637,��,6.4,��
2020/11/19,10:20,0.683,0.975,0.620,1.215,0.871,0.386,0.680,0.637,��,5.2,��
2020/11/19,10:30,0.683,0.977,0.620,1.217,0.870,0.387,0.678,0.639,��쓌,4.5,��
2020/11/19,10:40,0.682,0.976,0.621,1.219,0.872,0.387,0.679,0.636,��쓌,5.1,��
2020/11/19,10:50,0.681,0.979,0.620,1.219,0.869,0.387,-,0.638,��쓌,6.1,��
2020/11/19,11:00,0.682,0.976,0.621,1.213,0.869,0.388,-,0.638,��,6.1,��
2020/11/19,11:10,0.682,0.978,0.621,1.216,0.869,0.387,-,0.636,��,6.1,��
2020/11/19,11:20,0.682,0.979,0.622,1.215,0.870,0.386,-,0.639,��,7.4,��
2020/11/19,11:30,0.684,0.977,0.621,1.216,0.871,0.385,-,0.638,��,10.0,��
2020/11/19,11:40,0.682,0.981,0.619,1.215,0.871,0.387,-,0.637,��쓌,10.3,��
2020/11/19,11:50,0.682,0.980,0.618,1.215,0.869,0.387,-,0.637,��쓌,10.5,��
2020/11/19,12:00,0.684,0.981,0.619,1.217,0.870,0.387,-,0.638,��쓌,9.1,��
2020/11/19,12:10,0.683,0.980,0.618,1.217,0.870,0.388,-,0.637,��쓌,8.7,��
2020/11/19,12:20,0.684,0.983,0.619,1.218,0.871,0.387,-,0.636,��,6.2,��
2020/11/19,12:30,0.682,0.982,0.619,1.216,0.870,0.389,-,0.639,��쓌,6.0,��
2020/11/19,12:40,0.684,0.983,0.620,1.216,0.869,0.388,-,0.639,��쓌,5.8,��
2020/11/19,12:50,0.683,0.982,0.619,1.219,0.871,0.386,-,0.637,��,4.8,��
2020/11/19,13:00,0.683,0.979,0.622,1.217,0.872,0.386,-,0.635,��쓌,8.4,��
2020/11/19,13:10,0.682,0.979,0.621,1.215,0.870,0.387,-,0.639,��,6.6,��
2020/11/19,13:20,0.683,0.979,0.622,1.216,0.870,0.388,-,0.637,��,8.1,��
2020/11/19,13:30,0.684,0.980,0.619,1.217,0.873,0.388,-,0.638,��,10.2,��
2020/11/19,13:40,0.684,0.979,0.621,1.218,0.871,0.387,-,0.637,��,8.3,��
2020/11/19,13:50,0.683,0.980,0.619,1.216,0.871,0.388,-,0.639,��,9.5,��
2020/11/19,14:00,0.682,0.980,0.621,1.217,0.873,0.388,0.680,0.638,��,10.5,��
2020/11/19,14:10,0.682,0.981,0.620,1.219,0.871,0.386,0.682,0.637,��,11.6,��
2020/11/19,14:20,0.684,0.981,0.621,1.218,0.872,0.387,0.681,0.637,��,11.9,��
2020/11/19,14:30,0.685,0.981,0.620,1.217,0.872,0.388,0.682,0.638,��,10.5,��
2020/11/19,14:40,0.683,0.981,0.621,1.221,0.873,0.389,0.682,0.637,��,10.3,��
2020/11/19,14:50,0.684,0.981,0.620,1.218,0.871,0.388,0.680,0.638,��,10.5,��
2020/11/19,15:00,0.683,0.983,0.618,1.219,0.872,0.387,0.682,0.639,��,10.5,��
2020/11/19,15:10,0.683,0.984,0.620,1.218,0.871,0.388,0.683,0.638,��,9.4,��
2020/11/19,15:20,0.684,0.983,0.621,1.217,0.872,0.387,0.681,0.638,��,9.4,��
2020/11/19,15:30,0.683,0.980,0.619,1.217,0.872,0.390,0.681,0.638,��,6.4,��
2020/11/19,15:40,0.683,0.981,0.619,1.216,0.869,0.388,0.682,0.638,��,6.2,��
2020/11/19,15:50,0.684,0.982,0.618,1.217,0.871,0.389,0.683,0.638,��,7.6,��
2020/11/19,16:00,0.684,0.981,0.621,1.218,0.871,0.390,0.681,0.639,��,7.5,��
2020/11/19,16:10,0.683,0.985,0.620,1.216,0.869,0.389,0.681,0.637,��,7.8,��
2020/11/19,16:20,0.682,0.981,0.620,1.217,0.868,0.388,0.682,0.638,��,10.3,��
2020/11/19,16:30,0.684,0.985,0.620,1.218,0.871,0.389,0.682,0.639,��,9.1,��
2020/11/19,16:40,0.682,0.985,0.621,1.218,0.868,0.388,0.684,0.641,��,9.6,��
2020/11/19,16:50,0.684,0.984,0.622,1.215,0.869,0.388,0.684,0.640,��쐼,8.8,��
2020/11/19,17:00,0.682,0.984,0.620,1.216,0.870,0.389,0.684,0.638,��쐼,8.8,��
2020/11/19,17:10,0.681,0.989,0.622,1.219,0.871,0.389,0.684,0.641,��쐼,8.2,��
2020/11/19,17:20,0.685,0.985,0.622,1.217,0.871,0.387,0.683,0.641,��,8.3,��
2020/11/19,17:30,0.683,0.986,0.623,1.216,0.873,0.387,0.683,0.639,��,8.9,��
2020/11/19,17:40,0.685,0.987,0.621,1.215,0.872,0.390,0.683,0.642,��,9.5,��
2020/11/19,17:50,0.684,0.986,0.622,1.215,0.871,0.389,0.684,0.640,��,9.6,��
2020/11/19,18:00,0.683,0.987,0.621,1.215,0.874,0.390,0.683,0.641,��,9.9,��
2020/11/19,18:10,0.683,0.988,0.623,1.216,0.873,0.389,0.684,0.640,��,12.0,��
2020/11/19,18:20,0.685,0.986,0.622,1.215,0.874,0.390,0.684,0.640,��쐼,11.6,��
2020/11/19,18:30,0.685,0.984,0.623,1.215,0.873,0.388,0.684,0.639,��쐼,12.4,��
2020/11/19,18:40,0.685,0.984,0.624,1.218,0.872,0.387,0.684,0.642,��쐼,10.3,��
2020/11/19,18:50,0.685,0.988,0.621,1.217,0.872,0.387,0.684,0.641,��,11.6,��
2020/11/19,19:00,0.685,0.983,0.621,1.216,0.872,0.389,0.684,0.641,��,10.3,��
2020/11/19,19:10,0.683,0.985,0.623,1.218,0.870,0.389,0.684,0.641,��,10.9,��
2020/11/19,19:20,0.684,0.986,0.624,1.215,0.871,0.387,0.685,0.641,��,11.9,��
2020/11/19,19:30,0.683,0.986,0.622,1.214,0.872,0.389,0.684,0.640,��,11.7,��
2020/11/19,19:40,0.686,0.984,0.622,1.219,0.872,0.390,0.684,0.642,��,10.5,��
2020/11/19,19:50,0.685,0.987,0.623,1.217,0.873,0.389,0.684,0.642,��,9.8,��
2020/11/19,20:00,0.684,0.986,0.622,1.215,0.872,0.388,0.684,0.640,��,10.0,��
2020/11/19,20:10,0.683,0.983,0.623,1.215,0.872,0.389,0.686,0.641,��,10.3,��
2020/11/19,20:20,0.683,0.986,0.623,1.217,0.872,0.391,0.684,0.641,��,10.3,��
2020/11/19,20:30,0.684,0.985,0.622,1.217,0.872,0.388,0.683,0.640,��,9.0,��
2020/11/19,20:40,0.684,0.984,0.623,1.217,0.872,0.388,0.683,0.641,��,7.8,��
2020/11/19,20:50,0.685,0.984,0.621,1.214,0.874,0.388,0.683,0.640,��,8.9,��
2020/11/19,21:00,0.683,0.982,0.622,1.217,0.870,0.390,0.684,0.641,��,8.7,��
2020/11/19,21:10,0.685,0.985,0.622,1.217,0.871,0.389,0.684,0.639,��,8.3,��
2020/11/19,21:20,0.684,0.984,0.620,1.217,0.873,0.390,0.686,0.641,��,7.9,��
2020/11/19,21:30,0.684,0.983,0.623,1.217,0.872,0.388,0.684,0.641,��,9.2,��
2020/11/19,21:40,0.684,0.984,0.621,1.216,0.874,0.388,0.683,0.639,��쓌,8.7,��
2020/11/19,21:50,0.685,0.986,0.622,1.214,0.871,0.389,0.685,0.640,��,7.8,��
2020/11/19,22:00,0.685,0.983,0.623,1.217,0.870,0.389,0.685,0.639,��,7.3,��
2020/11/19,22:10,0.684,0.984,0.622,1.214,0.868,0.389,0.685,0.641,��,7.1,��
2020/11/19,22:20,0.685,0.985,0.621,1.215,0.868,0.390,0.683,0.642,��,5.9,��
2020/11/19,22:30,0.685,0.983,0.620,1.216,0.870,0.390,0.684,0.638,��,6.8,��
2020/11/19,22:40,0.686,0.985,0.621,1.219,0.871,0.389,0.684,0.640,��,6.1,��
2020/11/19,22:50,0.684,0.985,0.621,1.216,0.872,0.389,0.683,0.640,��,6.4,��
2020/11/19,23:00,0.687,0.985,0.622,1.214,0.870,0.390,0.683,0.641,��,5.4,��
2020/11/19,23:10,0.685,0.984,0.623,1.217,0.870,0.390,0.683,0.640,��,5.6,��
2020/11/19,23:20,0.687,0.985,0.622,1.217,0.868,0.391,0.685,0.643,��,6.5,��
2020/11/19,23:30,0.686,0.987,0.622,1.214,0.870,0.389,0.684,0.641,��쓌,6.7,��
2020/11/19,23:40,0.685,0.985,0.621,1.218,0.869,0.389,0.683,0.642,��쓌,5.6,��
2020/11/19,23:50,0.685,0.985,0.621,1.215,0.871,0.390,0.683,0.641,��쓌,5.3,��
